| time (UTC) | temp C | wind direction | speed KPH | gust KPH | rain 1hr cm | rain 24hr cm | rain mn cm | humidity % | barometer mb |
| 20260510073120 | 21 | 217 | 0.0 | 0.0 | 0.18 | 0.03 | 0.03 | 98 | 1012.9 |
| 20260510072616 | 21 | 218 | 0.0 | 0.0 | 0.18 | 0.03 | 0.03 | 98 | 1013.3 |
| 20260510072113 | 21 | 218 | 0.0 | 0.0 | 0.00 | 0.00 | 0.00 | 98 | 1013.6 |
| 20260510071608 | 21 | 218 | 0.0 | 0.0 | 0.00 | 0.00 | 0.00 | 98 | 1013.8 |
| 20260510071107 | 21 | 218 | 0.0 | 0.0 | 0.00 | 0.00 | 0.00 | 98 | 1013.8 |
| 20260510070603 | 21 | 218 | 0.0 | 0.0 | 0.00 | 0.00 | 0.00 | 98 | 1014.0 |
| 20260510065557 | 21 | 218 | 0.0 | 0.0 | 0.00 | 0.00 | 0.00 | 98 | 1013.6 |
| 20260510065053 | 21 | 218 | 0.0 | 0.0 | 0.00 | 0.00 | 0.00 | 98 | 1013.5 |
| 20260510064549 | 21 | 218 | 0.0 | 0.0 | 0.00 | 0.00 | 0.00 | 98 | 1013.4 |
| 20260510064045 | 21 | 218 | 0.0 | 0.0 | 0.00 | 0.00 | 0.00 | 98 | 1013.5 |
| 20260510063543 | 21 | 218 | 0.0 | 0.0 | 0.00 | 0.00 | 0.00 | 98 | 1013.7 |
| 20260510063040 | 21 | 218 | 0.0 | 0.0 | 0.00 | 0.00 | 0.00 | 98 | 1013.8 |
| 20260510062536 | 21 | 218 | 0.0 | 0.0 | 0.00 | 0.00 | 0.00 | 98 | 1014.0 |
| 20260510062031 | 20 | 218 | 0.0 | 0.0 | 0.00 | 0.00 | 0.00 | 98 | 1014.0 |
| 20260510061528 | 20 | 218 | 0.0 | 0.0 | 0.00 | 0.00 | 0.00 | 98 | 1014.0 |
| 20260510061024 | 20 | 218 | 0.0 | 0.0 | 0.00 | 0.00 | 0.00 | 98 | 1013.9 |
| 20260510060521 | 20 | 218 | 0.0 | 0.0 | 0.00 | 0.00 | 0.00 | 98 | 1014.1 |
| 20260510060017 | 20 | 218 | 0.0 | 0.0 | 0.00 | 0.00 | 0.00 | 98 | 1014.0 |
| 20260510055513 | 20 | 218 | 0.0 | 0.0 | 0.00 | 0.00 | 0.00 | 98 | 1014.2 |
| 20260510055012 | 20 | 218 | 0.0 | 0.0 | 0.00 | 0.00 | 0.00 | 98 | 1014.2 |
| 20260510054507 | 20 | 218 | 0.0 | 0.0 | 0.00 | 0.00 | 0.00 | 98 | 1014.6 |
| 20260510054002 | 20 | 218 | 0.0 | 0.0 | 0.00 | 0.00 | 0.00 | 98 | 1014.4 |
| 20260510053457 | 20 | 218 | 0.0 | 0.0 | 0.00 | 0.00 | 0.00 | 98 | 1014.4 |
| 20260510052954 | 20 | 218 | 0.0 | 0.0 | 0.00 | 0.00 | 0.00 | 98 | 1014.5 |
| 20260510052450 | 20 | 218 | 0.0 | 0.0 | 0.00 | 0.00 | 0.00 | 98 | 1014.4 |
| 20260510051946 | 20 | 218 | 0.0 | 0.0 | 0.00 | 0.00 | 0.00 | 98 | 1014.6 |
| 20260510051442 | 20 | 218 | 0.0 | 0.0 | 0.00 | 0.00 | 0.00 | 98 | 1014.7 |
| 20260510050939 | 20 | 218 | 0.0 | 0.0 | 0.00 | 0.00 | 0.00 | 97 | 1014.7 |
| 20260510050436 | 20 | 218 | 0.0 | 0.0 | 0.00 | 0.00 | 0.00 | 97 | 1014.6 |
| 20260510045933 | 20 | 218 | 0.0 | 0.0 | 0.00 | 0.00 | 0.00 | 97 | 1014.9 |
| 20260510045430 | 20 | 218 | 0.0 | 0.0 | 0.00 | 0.00 | 0.00 | 97 | 1015.1 |
| 20260510044927 | 20 | 218 | 0.0 | 0.0 | 0.00 | 0.00 | 0.00 | 97 | 1014.8 |
| 20260510044424 | 21 | 218 | 0.0 | 0.0 | 0.00 | 0.00 | 0.00 | 97 | 1014.9 |
| 20260510043920 | 21 | 218 | 0.0 | 0.0 | 0.00 | 0.00 | 0.00 | 97 | 1014.8 |
| 20260510043416 | 21 | 218 | 0.0 | 0.0 | 0.00 | 0.00 | 0.00 | 97 | 1014.8 |
| 20260510042915 | 21 | 218 | 0.0 | 0.0 | 0.00 | 0.00 | 0.00 | 97 | 1014.7 |
| 20260510042410 | 21 | 218 | 0.0 | 0.0 | 0.00 | 0.00 | 0.00 | 97 | 1014.9 |
| 20260510041906 | 21 | 218 | 0.0 | 0.0 | 0.00 | 0.00 | 0.00 | 97 | 1014.8 |
| 20260510041403 | 21 | 218 | 0.0 | 0.0 | 0.00 | 0.00 | 0.00 | 97 | 1014.8 |
| 20260510040901 | 21 | 218 | 0.0 | 0.0 | 0.00 | 0.00 | 0.00 | 97 | 1015.1 |
| 20260510040358 | 21 | 218 | 0.0 | 0.0 | 0.00 | 0.00 | 0.00 | 97 | 1014.8 |
| 20260510035854 | 21 | 218 | 0.0 | 0.0 | 0.00 | 0.69 | 0.69 | 97 | 1014.7 |
| 20260510035349 | 21 | 218 | 0.0 | 0.0 | 0.00 | 0.69 | 0.69 | 97 | 1014.8 |
| 20260510034845 | 21 | 218 | 0.0 | 0.0 | 0.00 | 0.69 | 0.69 | 97 | 1014.5 |
| 20260510034343 | 21 | 218 | 0.0 | 0.0 | 0.00 | 0.69 | 0.69 | 97 | 1014.8 |
| 20260510033839 | 21 | 218 | 0.0 | 0.0 | 0.00 | 0.69 | 0.69 | 97 | 1015.0 |
| 20260510033336 | 21 | 218 | 0.0 | 0.0 | 0.00 | 0.69 | 0.69 | 97 | 1014.9 |
| 20260510032833 | 21 | 218 | 0.0 | 0.0 | 0.00 | 0.69 | 0.69 | 97 | 1015.1 |
| 20260510032329 | 21 | 218 | 1.6 | 1.6 | 0.00 | 0.69 | 0.69 | 97 | 1015.2 |
| 20260510031825 | 21 | 218 | 0.0 | 0.0 | 0.00 | 0.69 | 0.69 | 97 | 1014.9 |
| 20260510031320 | 21 | 217 | 0.0 | 0.0 | 0.00 | 0.69 | 0.69 | 97 | 1014.8 |
| 20260510030815 | 21 | 218 | 0.0 | 0.0 | 0.00 | 0.69 | 0.69 | 97 | 1014.7 |
| 20260510030312 | 21 | 218 | 0.0 | 0.0 | 0.00 | 0.69 | 0.69 | 97 | 1014.4 |
| 20260510025809 | 21 | 218 | 0.0 | 0.0 | 0.00 | 0.69 | 0.69 | 97 | 1014.3 |
| 20260510025306 | 21 | 218 | 0.0 | 0.0 | 0.00 | 0.69 | 0.69 | 97 | 1014.4 |
| 20260510024803 | 21 | 218 | 0.0 | 0.0 | 0.00 | 0.69 | 0.69 | 97 | 1014.4 |
| 20260510024300 | 21 | 218 | 0.0 | 0.0 | 0.00 | 0.69 | 0.69 | 97 | 1014.5 |
| 20260510023756 | 21 | 218 | 0.0 | 0.0 | 0.00 | 0.69 | 0.69 | 97 | 1014.4 |
| 20260510023253 | 21 | 218 | 1.6 | 1.6 | 0.00 | 0.69 | 0.69 | 97 | 1014.3 |
| 20260510022750 | 21 | 218 | 0.0 | 0.0 | 0.00 | 0.69 | 0.69 | 97 | 1014.0 |
| 20260510022249 | 21 | 218 | 0.0 | 0.0 | 0.00 | 0.69 | 0.69 | 97 | 1013.9 |
| 20260510021748 | 21 | 218 | 0.0 | 0.0 | 0.00 | 0.69 | 0.69 | 97 | 1013.9 |
| 20260510021247 | 21 | 218 | 0.0 | 0.0 | 0.00 | 0.69 | 0.69 | 97 | 1013.7 |
| 20260510020743 | 21 | 218 | 0.0 | 0.0 | 0.00 | 0.69 | 0.69 | 97 | 1014.1 |
| 20260510020242 | 21 | 217 | 0.0 | 0.0 | 0.00 | 0.69 | 0.69 | 97 | 1014.1 |
| 20260510015739 | 21 | 219 | 0.0 | 0.0 | 0.00 | 0.69 | 0.69 | 97 | 1014.1 |
| 20260510015235 | 21 | 219 | 0.0 | 0.0 | 0.00 | 0.69 | 0.69 | 97 | 1014.0 |
| 20260510014730 | 21 | 219 | 0.0 | 0.0 | 0.00 | 0.69 | 0.69 | 97 | 1014.0 |
| 20260510014228 | 21 | 219 | 0.0 | 0.0 | 0.00 | 0.69 | 0.69 | 97 | 1014.1 |
| 20260510013724 | 21 | 219 | 1.6 | 1.6 | 0.00 | 0.69 | 0.69 | 97 | 1013.9 |
| 20260510013219 | 21 | 219 | 1.6 | 1.6 | 0.00 | 0.69 | 0.69 | 97 | 1013.3 |
| 20260510012719 | 21 | 219 | 0.0 | 0.0 | 0.00 | 0.69 | 0.69 | 97 | 1013.6 |
| 20260510012215 | 21 | 219 | 1.6 | 1.6 | 0.00 | 0.69 | 0.69 | 97 | 1013.6 |
| 20260510011715 | 21 | 218 | 0.0 | 0.0 | 0.00 | 0.69 | 0.69 | 97 | 1013.6 |
| 20260510011211 | 21 | 218 | 0.0 | 0.0 | 0.00 | 0.69 | 0.69 | 97 | 1013.5 |
| 20260510010708 | 21 | 228 | 1.6 | 1.6 | 0.00 | 0.69 | 0.69 | 97 | 1013.6 |
| 20260510010204 | 21 | 249 | 1.6 | 1.6 | 0.00 | 0.69 | 0.69 | 97 | 1013.5 |
| 20260510005701 | 21 | 245 | 1.6 | 1.6 | 0.00 | 0.69 | 0.69 | 97 | 1013.1 |
| 20260510005157 | 21 | 245 | 1.6 | 1.6 | 0.00 | 0.69 | 0.69 | 97 | 1013.1 |
| 20260510004655 | 21 | 245 | 1.6 | 1.6 | 0.00 | 0.69 | 0.69 | 97 | 1013.1 |
| 20260510004153 | 21 | 245 | 0.0 | 0.0 | 0.00 | 0.69 | 0.69 | 97 | 1013.4 |
| 20260510003650 | 21 | 245 | 0.0 | 0.0 | 0.00 | 0.69 | 0.69 | 96 | 1013.2 |
| 20260510003146 | 21 | 242 | 0.0 | 0.0 | 0.00 | 0.69 | 0.69 | 96 | 1013.3 |
| 20260510002646 | 21 | 242 | 0.0 | 0.0 | 0.00 | 0.69 | 0.69 | 96 | 1013.3 |
| 20260510002143 | 21 | 242 | 1.6 | 1.6 | 0.00 | 0.69 | 0.69 | 96 | 1013.6 |
| 20260510001640 | 21 | 242 | 0.0 | 0.0 | 0.00 | 0.69 | 0.69 | 96 | 1013.7 |
| 20260510001138 | 21 | 243 | 3.2 | 3.2 | 0.13 | 0.69 | 0.69 | 96 | 1013.9 |
| 20260510000639 | 21 | 241 | 0.0 | 0.0 | 0.13 | 0.69 | 0.69 | 96 | 1013.6 |
| 20260510000137 | 21 | 241 | 0.0 | 1.6 | 0.00 | 0.66 | 0.66 | 96 | 1013.8 |
| 20260509235632 | 21 | 241 | 0.0 | 0.0 | 0.00 | 0.66 | 0.66 | 96 | 1013.6 |
| 20260509235129 | 21 | 241 | 0.0 | 0.0 | 0.00 | 0.66 | 0.66 | 96 | 1013.5 |
| 20260509234625 | 21 | 242 | 1.6 | 1.6 | 0.00 | 0.66 | 0.66 | 96 | 1013.6 |
| 20260509234123 | 21 | 241 | 0.0 | 0.0 | 0.00 | 0.66 | 0.66 | 96 | 1013.6 |
| 20260509233620 | 21 | 241 | 0.0 | 0.0 | 0.00 | 0.66 | 0.66 | 96 | 1013.5 |
| 20260509233118 | 22 | 241 | 0.0 | 0.0 | 0.00 | 0.66 | 0.66 | 96 | 1013.6 |
| 20260509232614 | 21 | 241 | 0.0 | 0.0 | 0.00 | 0.66 | 0.66 | 96 | 1013.7 |
| 20260509232111 | 22 | 241 | 0.0 | 0.0 | 0.00 | 0.66 | 0.66 | 96 | 1013.5 |
| 20260509231607 | 22 | 241 | 0.0 | 0.0 | 0.00 | 0.66 | 0.66 | 96 | 1013.3 |
| 20260509231105 | 22 | 241 | 0.0 | 0.0 | 0.00 | 0.66 | 0.66 | 96 | 1013.5 |
| 20260509230602 | 22 | 241 | 0.0 | 0.0 | 0.00 | 0.66 | 0.66 | 96 | 1013.4 |
| 20260509230059 | 21 | 241 | 0.0 | 0.0 | 0.00 | 0.66 | 0.66 | 96 | 1013.4 |
| 20260509225554 | 21 | 241 | 0.0 | 0.0 | 0.00 | 0.66 | 0.66 | 96 | 1013.5 |
| 20260509225050 | 21 | 241 | 0.0 | 0.0 | 0.00 | 0.66 | 0.66 | 95 | 1013.4 |
| 20260509224546 | 21 | 241 | 0.0 | 0.0 | 0.00 | 0.66 | 0.66 | 95 | 1013.4 |
| 20260509224043 | 21 | 241 | 0.0 | 0.0 | 0.00 | 0.66 | 0.66 | 95 | 1013.7 |
| 20260509223540 | 21 | 241 | 0.0 | 0.0 | 0.00 | 0.66 | 0.66 | 95 | 1013.2 |
| 20260509223038 | 21 | 241 | 0.0 | 0.0 | 0.00 | 0.66 | 0.66 | 95 | 1013.3 |
| 20260509222533 | 21 | 241 | 0.0 | 0.0 | 0.00 | 0.66 | 0.66 | 95 | 1013.1 |
| 20260509222029 | 21 | 241 | 0.0 | 0.0 | 0.00 | 0.66 | 0.66 | 95 | 1013.2 |
| 20260509221525 | 22 | 241 | 0.0 | 0.0 | 0.00 | 0.66 | 0.66 | 96 | 1013.2 |
| 20260509221021 | 22 | 241 | 0.0 | 0.0 | 0.00 | 0.66 | 0.66 | 96 | 1013.1 |
| 20260509220517 | 22 | 241 | 0.0 | 0.0 | 0.00 | 0.66 | 0.66 | 96 | 1013.0 |
| 20260509220014 | 21 | 241 | 0.0 | 0.0 | 0.00 | 0.66 | 0.66 | 95 | 1013.0 |
| 20260509215509 | 21 | 241 | 0.0 | 0.0 | 0.00 | 0.66 | 0.66 | 95 | 1013.2 |
| 20260509215007 | 21 | 242 | 0.0 | 0.0 | 0.00 | 0.66 | 0.66 | 95 | 1013.1 |
| 20260509214504 | 21 | 241 | 0.0 | 0.0 | 0.00 | 0.66 | 0.66 | 95 | 1013.2 |
| 20260509214001 | 21 | 242 | 0.0 | 0.0 | 0.00 | 0.66 | 0.66 | 95 | 1013.1 |
| 20260509213457 | 21 | 241 | 0.0 | 0.0 | 0.00 | 0.66 | 0.66 | 95 | 1013.3 |
| 20260509212954 | 21 | 241 | 0.0 | 0.0 | 0.00 | 0.66 | 0.66 | 95 | 1013.3 |
| 20260509212451 | 21 | 241 | 0.0 | 0.0 | 0.00 | 0.66 | 0.66 | 95 | 1013.4 |
| 20260509211947 | 21 | 240 | 0.0 | 0.0 | 0.00 | 0.66 | 0.66 | 95 | 1013.4 |
| 20260509211443 | 21 | 240 | 0.0 | 0.0 | 0.00 | 0.66 | 0.66 | 95 | 1013.5 |
| 20260509210940 | 21 | 240 | 0.0 | 0.0 | 0.00 | 0.66 | 0.66 | 95 | 1013.3 |
| 20260509210437 | 21 | 240 | 0.0 | 0.0 | 0.00 | 0.66 | 0.66 | 95 | 1013.3 |
| 20260509205932 | 21 | 238 | 0.0 | 0.0 | 0.18 | 0.66 | 0.66 | 95 | 1013.6 |
| 20260509205427 | 21 | 238 | 0.0 | 0.0 | 0.30 | 0.66 | 0.66 | 95 | 1013.6 |
| 20260509204923 | 21 | 238 | 0.0 | 0.0 | 0.13 | 0.64 | 0.64 | 95 | 1013.4 |
| 20260509204419 | 21 | 238 | 0.0 | 0.0 | 0.00 | 0.61 | 0.61 | 95 | 1013.6 |
| 20260509203916 | 21 | 238 | 0.0 | 0.0 | 0.18 | 0.61 | 0.61 | 95 | 1013.6 |
| 20260509203412 | 21 | 238 | 0.0 | 0.0 | 0.18 | 0.61 | 0.61 | 95 | 1013.8 |
| 20260509202910 | 21 | 233 | 0.0 | 0.0 | 0.18 | 0.61 | 0.61 | 95 | 1013.5 |
| 20260509202405 | 21 | 233 | 0.0 | 0.0 | 0.00 | 0.58 | 0.58 | 95 | 1013.6 |
| 20260509201901 | 22 | 240 | 0.0 | 0.0 | 0.79 | 0.58 | 0.58 | 94 | 1013.4 |
| 20260509201356 | 21 | 209 | 0.0 | 0.0 | 1.50 | 0.58 | 0.58 | 94 | 1013.6 |
| 20260509200854 | 22 | 221 | 0.0 | 0.0 | 0.89 | 0.46 | 0.46 | 94 | 1013.5 |
| 20260509200354 | 22 | 292 | 0.0 | 0.0 | 0.18 | 0.33 | 0.33 | 93 | 1013.3 |
| 20260509195851 | 22 | 290 | 1.6 | 1.6 | 0.13 | 0.30 | 0.30 | 93 | 1013.6 |
| 20260509195351 | 22 | 289 | 0.0 | 0.0 | 0.30 | 0.30 | 0.30 | 92 | 1013.2 |
| 20260509194851 | 22 | 286 | 0.0 | 0.0 | 0.30 | 0.28 | 0.28 | 91 | 1013.5 |
| 20260509194347 | 23 | 313 | 3.2 | 3.2 | 0.13 | 0.25 | 0.25 | 91 | 1013.6 |
| 20260509193844 | 23 | 254 | 3.2 | 1.6 | 0.18 | 0.23 | 0.23 | 91 | 1013.2 |
| 20260509193344 | 23 | 213 | 0.0 | 0.0 | 0.48 | 0.23 | 0.23 | 90 | 1013.0 |
| 20260509192840 | 23 | 212 | 1.6 | 1.6 | 0.61 | 0.20 | 0.20 | 88 | 1013.1 |
| 20260509192336 | 24 | 200 | 3.2 | 3.2 | 0.48 | 0.15 | 0.15 | 86 | 1013.0 |
| 20260509191832 | 24 | 198 | 3.2 | 3.2 | 0.18 | 0.10 | 0.10 | 84 | 1013.1 |
| 20260509191327 | 25 | 222 | 3.2 | 3.2 | 0.00 | 0.08 | 0.08 | 81 | 1013.2 |
| 20260509190824 | 25 | 194 | 3.2 | 3.2 | 0.00 | 0.08 | 0.08 | 78 | 1013.3 |
| 20260509190321 | 25 | 224 | 1.6 | 1.6 | 0.00 | 0.08 | 0.08 | 76 | 1013.0 |
| 20260509185818 | 26 | 238 | 3.2 | 3.2 | 0.00 | 0.08 | 0.08 | 75 | 1012.8 |
| 20260509185314 | 26 | 240 | 1.6 | 1.6 | 0.00 | 0.08 | 0.08 | 74 | 1012.9 |
| 20260509184812 | 26 | 207 | 3.2 | 3.2 | 0.00 | 0.08 | 0.08 | 74 | 1013.1 |
| 20260509184309 | 26 | 250 | 8.0 | 9.7 | 0.00 | 0.08 | 0.08 | 72 | 1013.1 |
| 20260509183805 | 26 | 102 | 1.6 | 1.6 | 0.00 | 0.08 | 0.08 | 73 | 1013.2 |
| 20260509183301 | 26 | 241 | 0.0 | 0.0 | 0.00 | 0.08 | 0.08 | 75 | 1013.0 |
| 20260509182756 | 26 | 256 | 4.8 | 4.8 | 0.00 | 0.08 | 0.08 | 74 | 1013.1 |
| 20260509182254 | 26 | 239 | 6.4 | 6.4 | 0.00 | 0.08 | 0.08 | 74 | 1013.2 |
| 20260509181751 | 26 | 174 | 3.2 | 3.2 | 0.00 | 0.08 | 0.08 | 73 | 1013.1 |
| 20260509181249 | 26 | 217 | 3.2 | 3.2 | 0.00 | 0.08 | 0.08 | 73 | 1013.1 |
| 20260509180745 | 26 | 220 | 1.6 | 1.6 | 0.00 | 0.08 | 0.08 | 73 | 1013.1 |
| 20260509180242 | 26 | 225 | 3.2 | 3.2 | 0.00 | 0.08 | 0.08 | 71 | 1013.0 |
| 20260509175738 | 27 | 216 | 8.0 | 6.4 | 0.00 | 0.08 | 0.08 | 70 | 1012.9 |
| 20260509175235 | 26 | 225 | 1.6 | 1.6 | 0.00 | 0.08 | 0.08 | 72 | 1013.3 |
| 20260509174731 | 27 | 218 | 4.8 | 6.4 | 0.00 | 0.08 | 0.08 | 72 | 1013.5 |
| 20260509174226 | 26 | 234 | 6.4 | 4.8 | 0.00 | 0.08 | 0.08 | 71 | 1013.4 |
| 20260509173723 | 27 | 228 | 4.8 | 6.4 | 0.00 | 0.08 | 0.08 | 71 | 1013.4 |
| 20260509173219 | 26 | 204 | 3.2 | 3.2 | 0.00 | 0.08 | 0.08 | 72 | 1013.4 |
| 20260509172715 | 26 | 147 | 4.8 | 4.8 | 0.00 | 0.08 | 0.08 | 73 | 1013.2 |
| 20260509172211 | 26 | 245 | 1.6 | 1.6 | 0.00 | 0.08 | 0.08 | 74 | 1013.6 |
| 20260509171707 | 26 | 239 | 1.6 | 1.6 | 0.00 | 0.08 | 0.08 | 73 | 1013.4 |
| 20260509171203 | 26 | 197 | 4.8 | 6.4 | 0.00 | 0.08 | 0.08 | 74 | 1013.6 |
| 20260509170700 | 26 | 218 | 3.2 | 3.2 | 0.00 | 0.08 | 0.08 | 73 | 1013.8 |
| 20260509170156 | 26 | 177 | 0.0 | 0.0 | 0.00 | 0.08 | 0.08 | 74 | 1013.7 |
| 20260509165655 | 26 | 240 | 6.4 | 6.4 | 0.00 | 0.08 | 0.08 | 72 | 1013.6 |
| 20260509165150 | 26 | 216 | 1.6 | 1.6 | 0.00 | 0.08 | 0.08 | 71 | 1013.7 |
| 20260509164646 | 27 | 260 | 3.2 | 3.2 | 0.00 | 0.08 | 0.08 | 69 | 1013.7 |
| 20260509164142 | 27 | 166 | 0.0 | 0.0 | 0.00 | 0.08 | 0.08 | 70 | 1013.9 |
| 20260509163640 | 26 | 175 | 1.6 | 3.2 | 0.00 | 0.08 | 0.08 | 71 | 1013.9 |
| 20260509163135 | 26 | 169 | 1.6 | 1.6 | 0.00 | 0.08 | 0.08 | 71 | 1014.0 |
| 20260509162633 | 26 | 175 | 3.2 | 3.2 | 0.00 | 0.08 | 0.08 | 73 | 1014.0 |
| 20260509162129 | 26 | 166 | 0.0 | 0.0 | 0.00 | 0.08 | 0.08 | 72 | 1013.9 |
| 20260509161625 | 26 | 199 | 3.2 | 1.6 | 0.00 | 0.08 | 0.08 | 70 | 1014.1 |
| 20260509161120 | 26 | 223 | 3.2 | 1.6 | 0.00 | 0.08 | 0.08 | 71 | 1013.9 |
| 20260509160617 | 26 | 222 | 0.0 | 1.6 | 0.00 | 0.08 | 0.08 | 72 | 1013.8 |
| 20260509160112 | 26 | 222 | 0.0 | 0.0 | 0.00 | 0.08 | 0.08 | 70 | 1013.7 |
| 20260509155608 | 26 | 222 | 0.0 | 0.0 | 0.00 | 0.08 | 0.08 | 71 | 1013.4 |
| 20260509155105 | 25 | 222 | 0.0 | 0.0 | 0.00 | 0.08 | 0.08 | 74 | 1013.2 |
| 20260509154600 | 25 | 222 | 0.0 | 1.6 | 0.00 | 0.08 | 0.08 | 73 | 1013.5 |
| 20260509154058 | 25 | 222 | 0.0 | 0.0 | 0.00 | 0.08 | 0.08 | 73 | 1013.8 |
| 20260509153555 | 25 | 222 | 0.0 | 0.0 | 0.00 | 0.08 | 0.08 | 74 | 1013.8 |
| 20260509153052 | 25 | 223 | 0.0 | 0.0 | 0.00 | 0.08 | 0.08 | 74 | 1014.0 |
| 20260509152548 | 25 | 222 | 0.0 | 0.0 | 0.00 | 0.08 | 0.08 | 74 | 1014.3 |
| 20260509152045 | 25 | 222 | 1.6 | 1.6 | 0.00 | 0.08 | 0.08 | 76 | 1014.2 |
| 20260509151541 | 25 | 223 | 0.0 | 0.0 | 0.00 | 0.08 | 0.08 | 76 | 1014.2 |
| 20260509151039 | 24 | 222 | 0.0 | 0.0 | 0.00 | 0.08 | 0.08 | 80 | 1014.3 |
| 20260509150536 | 24 | 222 | 0.0 | 0.0 | 0.00 | 0.08 | 0.08 | 81 | 1014.4 |
| 20260509150035 | 23 | 223 | 0.0 | 0.0 | 0.00 | 0.08 | 0.08 | 81 | 1015.0 |
| 20260509145530 | 23 | 222 | 0.0 | 0.0 | 0.00 | 0.08 | 0.08 | 81 | 1014.8 |
| 20260509145025 | 23 | 222 | 0.0 | 0.0 | 0.00 | 0.08 | 0.08 | 81 | 1014.5 |
| 20260509144522 | 23 | 223 | 0.0 | 0.0 | 0.00 | 0.08 | 0.08 | 81 | 1014.7 |
| 20260509144020 | 23 | 222 | 0.0 | 0.0 | 0.00 | 0.08 | 0.08 | 81 | 1014.7 |
| 20260509143516 | 23 | 223 | 0.0 | 0.0 | 0.00 | 0.08 | 0.08 | 81 | 1014.7 |
| 20260509143015 | 23 | 222 | 0.0 | 0.0 | 0.00 | 0.08 | 0.08 | 81 | 1014.6 |
| 20260509142510 | 23 | 223 | 0.0 | 0.0 | 0.00 | 0.08 | 0.08 | 80 | 1014.1 |
| 20260509142005 | 23 | 222 | 0.0 | 0.0 | 0.00 | 0.08 | 0.08 | 80 | 1014.2 |
| 20260509141502 | 23 | 222 | 1.6 | 0.0 | 0.00 | 0.08 | 0.08 | 79 | 1014.3 |
| 20260509140959 | 23 | 222 | 0.0 | 0.0 | 0.00 | 0.08 | 0.08 | 81 | 1014.3 |
| 20260509140455 | 23 | 222 | 1.6 | 1.6 | 0.00 | 0.08 | 0.08 | 84 | 1014.5 |
| 20260509135954 | 23 | 222 | 1.6 | 1.6 | 0.00 | 0.08 | 0.08 | 85 | 1014.1 |
| 20260509135450 | 22 | 222 | 0.0 | 0.0 | 0.00 | 0.08 | 0.08 | 87 | 1014.3 |
| 20260509134948 | 22 | 222 | 0.0 | 0.0 | 0.00 | 0.08 | 0.08 | 87 | 1014.3 |
| 20260509134445 | 22 | 222 | 1.6 | 1.6 | 0.00 | 0.08 | 0.08 | 87 | 1014.2 |
| 20260509133943 | 22 | 222 | 0.0 | 0.0 | 0.00 | 0.08 | 0.08 | 89 | 1014.4 |
| 20260509133439 | 22 | 222 | 0.0 | 0.0 | 0.00 | 0.08 | 0.08 | 91 | 1014.3 |
| 20260509132937 | 22 | 222 | 0.0 | 0.0 | 0.00 | 0.08 | 0.08 | 90 | 1014.0 |
| 20260509132435 | 22 | 222 | 0.0 | 0.0 | 0.00 | 0.08 | 0.08 | 90 | 1013.7 |
| 20260509131932 | 21 | 222 | 0.0 | 0.0 | 0.00 | 0.08 | 0.08 | 92 | 1013.6 |
| 20260509131429 | 21 | 222 | 0.0 | 0.0 | 0.00 | 0.08 | 0.08 | 91 | 1013.8 |
| 20260509130926 | 21 | 222 | 0.0 | 0.0 | 0.00 | 0.08 | 0.08 | 91 | 1013.6 |
| 20260509130421 | 21 | 222 | 0.0 | 0.0 | 0.00 | 0.08 | 0.08 | 92 | 1013.5 |
| 20260509125918 | 21 | 222 | 0.0 | 0.0 | 0.00 | 0.08 | 0.08 | 94 | 1013.8 |
| 20260509125415 | 21 | 222 | 0.0 | 0.0 | 0.00 | 0.08 | 0.08 | 94 | 1013.9 |
| 20260509124911 | 21 | 222 | 0.0 | 0.0 | 0.00 | 0.08 | 0.08 | 95 | 1013.7 |
| 20260509124408 | 21 | 222 | 0.0 | 0.0 | 0.00 | 0.08 | 0.08 | 95 | 1013.6 |
| 20260509123906 | 21 | 222 | 1.6 | 1.6 | 0.00 | 0.08 | 0.08 | 95 | 1013.5 |
| 20260509123403 | 21 | 222 | 0.0 | 0.0 | 0.00 | 0.08 | 0.08 | 96 | 1013.3 |
| 20260509122858 | 21 | 222 | 0.0 | 0.0 | 0.00 | 0.08 | 0.08 | 97 | 1013.3 |
| 20260509122355 | 20 | 222 | 0.0 | 0.0 | 0.00 | 0.08 | 0.08 | 97 | 1013.4 |
| 20260509121852 | 20 | 222 | 0.0 | 0.0 | 0.00 | 0.08 | 0.08 | 97 | 1013.6 |
| 20260509121349 | 20 | 222 | 0.0 | 0.0 | 0.00 | 0.08 | 0.08 | 97 | 1013.7 |
| 20260509120848 | 20 | 222 | 0.0 | 0.0 | 0.00 | 0.08 | 0.08 | 97 | 1013.7 |
| 20260509120345 | 20 | 222 | 0.0 | 0.0 | 0.00 | 0.08 | 0.08 | 97 | 1013.5 |
| 20260509115843 | 20 | 222 | 0.0 | 0.0 | 0.00 | 0.08 | 0.08 | 97 | 1013.5 |
| 20260509115340 | 20 | 222 | 0.0 | 0.0 | 0.00 | 0.08 | 0.08 | 97 | 1013.4 |
| 20260509114837 | 20 | 222 | 0.0 | 0.0 | 0.00 | 0.08 | 0.08 | 97 | 1013.2 |
| 20260509114336 | 20 | 222 | 0.0 | 0.0 | 0.00 | 0.08 | 0.08 | 97 | 1013.3 |
| 20260509113835 | 20 | 222 | 0.0 | 0.0 | 0.00 | 0.08 | 0.08 | 97 | 1013.2 |
| 20260509113331 | 19 | 223 | 0.0 | 0.0 | 0.00 | 0.08 | 0.08 | 97 | 1013.4 |
| 20260509112828 | 19 | 223 | 0.0 | 0.0 | 0.00 | 0.08 | 0.08 | 97 | 1013.2 |
| 20260509112325 | 19 | 223 | 0.0 | 0.0 | 0.00 | 0.08 | 0.08 | 96 | 1013.2 |
| 20260509111822 | 19 | 223 | 1.6 | 1.6 | 0.00 | 0.08 | 0.08 | 96 | 1013.3 |
| 20260509111319 | 19 | 222 | 0.0 | 0.0 | 0.00 | 0.08 | 0.08 | 96 | 1013.0 |
| 20260509110817 | 19 | 222 | 0.0 | 0.0 | 0.00 | 0.08 | 0.08 | 96 | 1012.8 |
| 20260509110313 | 19 | 222 | 1.6 | 1.6 | 0.00 | 0.08 | 0.08 | 96 | 1012.7 |
| 20260509105811 | 19 | 222 | 1.6 | 1.6 | 0.00 | 0.08 | 0.08 | 96 | 1012.8 |
| 20260509105309 | 19 | 222 | 1.6 | 1.6 | 0.00 | 0.08 | 0.08 | 96 | 1012.6 |
| 20260509104805 | 19 | 222 | 0.0 | 0.0 | 0.00 | 0.08 | 0.08 | 96 | 1012.3 |
| 20260509104302 | 19 | 222 | 0.0 | 0.0 | 0.00 | 0.08 | 0.08 | 95 | 1012.3 |
| 20260509103800 | 19 | 223 | 0.0 | 0.0 | 0.00 | 0.08 | 0.08 | 95 | 1012.2 |
| 20260509103257 | 19 | 223 | 1.6 | 1.6 | 0.00 | 0.08 | 0.08 | 95 | 1012.3 |
| 20260509102756 | 19 | 222 | 0.0 | 0.0 | 0.00 | 0.08 | 0.08 | 95 | 1012.3 |
| 20260509102252 | 20 | 222 | 0.0 | 0.0 | 0.00 | 0.08 | 0.08 | 94 | 1012.3 |
| 20260509101749 | 20 | 223 | 0.0 | 1.6 | 0.00 | 0.08 | 0.08 | 94 | 1012.4 |
| 20260509101245 | 20 | 222 | 1.6 | 1.6 | 0.00 | 0.08 | 0.08 | 93 | 1011.8 |
| 20260509100742 | 20 | 222 | 0.0 | 0.0 | 0.00 | 0.08 | 0.08 | 91 | 1011.9 |
| 20260509100240 | 20 | 227 | 1.6 | 1.6 | 0.00 | 0.08 | 0.08 | 92 | 1011.5 |
| 20260509095736 | 20 | 234 | 1.6 | 1.6 | 0.00 | 0.08 | 0.08 | 92 | 1011.4 |
| 20260509095233 | 20 | 231 | 1.6 | 1.6 | 0.00 | 0.08 | 0.08 | 91 | 1011.4 |
| 20260509094731 | 20 | 225 | 1.6 | 3.2 | 0.00 | 0.08 | 0.08 | 91 | 1011.7 |
| 20260509094227 | 20 | 256 | 3.2 | 3.2 | 0.00 | 0.08 | 0.08 | 91 | 1011.5 |
| 20260509093725 | 20 | 259 | 4.8 | 4.8 | 0.00 | 0.08 | 0.08 | 92 | 1011.3 |
| 20260509093222 | 20 | 256 | 4.8 | 6.4 | 0.00 | 0.08 | 0.08 | 93 | 1011.1 |
| 20260509092720 | 20 | 184 | 3.2 | 4.8 | 0.00 | 0.08 | 0.08 | 94 | 1011.2 |
| 20260509092218 | 20 | 222 | 1.6 | 3.2 | 0.00 | 0.08 | 0.08 | 95 | 1011.5 |
| 20260509091716 | 20 | 235 | 3.2 | 4.8 | 0.00 | 0.08 | 0.08 | 96 | 1011.6 |
| 20260509091212 | 20 | 264 | 3.2 | 1.6 | 0.00 | 0.08 | 0.08 | 96 | 1011.3 |
| 20260509090710 | 20 | 246 | 6.4 | 6.4 | 0.00 | 0.08 | 0.08 | 97 | 1010.9 |
| 20260509090207 | 20 | 258 | 3.2 | 4.8 | 0.00 | 0.08 | 0.08 | 97 | 1011.2 |
| 20260509085704 | 20 | 215 | 3.2 | 3.2 | 0.00 | 0.08 | 0.08 | 96 | 1011.5 |
| 20260509085201 | 20 | 157 | 3.2 | 3.2 | 0.00 | 0.08 | 0.08 | 97 | 1011.9 |
| 20260509084658 | 20 | 265 | 1.6 | 1.6 | 0.00 | 0.08 | 0.08 | 97 | 1012.2 |
| 20260509084154 | 20 | 266 | 0.0 | 0.0 | 0.00 | 0.08 | 0.08 | 96 | 1012.4 |
| 20260509083653 | 20 | 266 | 0.0 | 0.0 | 0.00 | 0.08 | 0.08 | 96 | 1012.7 |
| 20260509083148 | 20 | 267 | 0.0 | 0.0 | 0.00 | 0.08 | 0.08 | 96 | 1012.7 |
| 20260509082646 | 20 | 267 | 0.0 | 0.0 | 0.00 | 0.08 | 0.08 | 96 | 1012.8 |
| 20260509082142 | 20 | 267 | 0.0 | 0.0 | 0.00 | 0.08 | 0.08 | 96 | 1013.0 |
| 20260509081639 | 20 | 267 | 1.6 | 1.6 | 0.00 | 0.08 | 0.08 | 96 | 1012.5 |
| 20260509081136 | 20 | 228 | 1.6 | 1.6 | 0.00 | 0.08 | 0.08 | 96 | 1012.3 |
| 20260509080634 | 20 | 256 | 3.2 | 4.8 | 0.00 | 0.08 | 0.08 | 96 | 1012.3 |
| 20260509080132 | 20 | 183 | 1.6 | 1.6 | 0.00 | 0.08 | 0.08 | 96 | 1012.3 |
| 20260509075630 | 20 | 234 | 0.0 | 0.0 | 0.00 | 0.08 | 0.08 | 96 | 1012.4 |
| 20260509075128 | 20 | 188 | 1.6 | 1.6 | 0.00 | 0.08 | 0.08 | 96 | 1012.2 |
| 20260509074624 | 20 | 236 | 1.6 | 1.6 | 0.00 | 0.08 | 0.08 | 96 | 1012.1 |
| 20260509074121 | 20 | 201 | 1.6 | 1.6 | 0.00 | 0.08 | 0.08 | 96 | 1012.3 |
| 20260509073618 | 20 | 188 | 1.6 | 1.6 | 0.00 | 0.08 | 0.08 | 96 | 1012.4 |